When you browse on this site, cookies collect data to enhance your experience and personalize the content and advertising you see.
Visit our Privacy Policy to learn more. By continuing to use the site, you agree to this use of cookies and data.
  • In United Kingdom
  • List of Countries
  • For 7 days
  • Water Temperature
  • Satellite Maps
  • Weather Map
  • Weather Widgets
  • user-avatar
    Login

    Hourly Weather Peshawar

    Today, 23 February, Saturday

    Time Temperature Precipitation Wind Pressure Humidity
    00:00 +24°C° 0 mm 2 mps 758 mmHg 27%
    01:00 +24°C° 0 mm 3 mps 758 mmHg 25%
    02:00 +22°C° 0 mm 3 mps 758 mmHg 25%
    03:00 +22°C° 0 mm 3 mps 758 mmHg 24%
    04:00 +21°C° 0 mm 3 mps 758 mmHg 23%
    05:00 +22°C° 0 mm 3 mps 758 mmHg 23%
    06:00 +22°C° 0 mm 3 mps 758 mmHg 22%
    07:00 +22°C° 0 mm 3 mps 759 mmHg 22%
    08:00 +24°C° 0 mm 3 mps 759 mmHg 20%
    09:00 +26°C° 0 mm 3 mps 759 mmHg 19%
    10:00 +27°C° 0 mm 3 mps 759 mmHg 19%
    11:00 +28°C° 0 mm 2 mps 758 mmHg 18%
    12:00 +28°C° 0 mm 2 mps 758 mmHg 18%
    13:00 +29°C° 0 mm 1 mps 757 mmHg 17%
    14:00 +29°C° 0 mm 2 mps 757 mmHg 18%
    15:00 +29°C° 0 mm 4 mps 757 mmHg 19%
    16:00 +29°C° 0 mm 5 mps 756 mmHg 20%
    17:00 +28°C° 0 mm 5 mps 756 mmHg 23%
    18:00 +27°C° 0 mm 5 mps 756 mmHg 26%
    19:00 +26°C° 0 mm 5 mps 756 mmHg 28%
    20:00 +25°C° 0 mm 5 mps 756 mmHg 32%
    21:00 +25°C° 0 mm 4 mps 756 mmHg 35%
    22:00 +23°C° 0 mm 4 mps 756 mmHg 38%
    23:00 +23°C° 0 mm 4 mps 756 mmHg 42%

    Tomorrow, 24 February, Sunday

    Time Temperature Precipitation Wind Pressure Humidity
    00:00 +23°C° 0 mm 4 mps 756 mmHg 47%
    01:00 +22°C° 0 mm 4 mps 756 mmHg 51%
    02:00 +22°C° 0 mm 4 mps 755 mmHg 50%
    03:00 +22°C° 0 mm 4 mps 755 mmHg 49%
    04:00 +22°C° 0 mm 4 mps 755 mmHg 49%
    05:00 +22°C° 0 mm 3 mps 755 mmHg 47%
    06:00 +22°C° 0 mm 3 mps 755 mmHg 45%
    07:00 +22°C° 0 mm 3 mps 755 mmHg 43%
    08:00 +25°C° 0 mm 2 mps 756 mmHg 37%
    09:00 +26°C° 0 mm 2 mps 756 mmHg 30%
    10:00 +28°C° 0 mm 2 mps 756 mmHg 24%
    11:00 +29°C° 0 mm 3 mps 755 mmHg 23%
    12:00 +30°C° 0 mm 3 mps 755 mmHg 21%
    13:00 +31°C° 0 mm 3 mps 754 mmHg 20%
    14:00 +30°C° 0 mm 4 mps 754 mmHg 21%
    15:00 +30°C° 0 mm 5 mps 753 mmHg 22%
    16:00 +30°C° 0 mm 6 mps 753 mmHg 24%
    17:00 +28°C° 0 mm 6 mps 753 mmHg 30%
    18:00 +27°C° 0 mm 5 mps 754 mmHg 36%
    19:00 +26°C° 0 mm 5 mps 754 mmHg 42%
    20:00 +25°C° 0 mm 5 mps 754 mmHg 49%
    21:00 +25°C° 0 mm 5 mps 755 mmHg 55%
    22:00 +23°C° 0 mm 5 mps 755 mmHg 61%
    23:00 +23°C° 0 mm 5 mps 754 mmHg 65%

    Day after tomorrow, 25 February, Monday

    Time Temperature Precipitation Wind Pressure Humidity
    00:00 +23°C° 0 mm 4 mps 754 mmHg 69%
    01:00 +22°C° 0 mm 4 mps 754 mmHg 72%
    02:00 +22°C° 0 mm 4 mps 754 mmHg 74%
    03:00 +22°C° 0 mm 4 mps 753 mmHg 75%
    04:00 +22°C° 0 mm 4 mps 753 mmHg 76%
    05:00 +22°C° 0 mm 4 mps 754 mmHg 76%
    06:00 +22°C° 0 mm 4 mps 754 mmHg 76%
    07:00 +22°C° 0 mm 4 mps 754 mmHg 76%
    08:00 +25°C° 0 mm 5 mps 754 mmHg 68%
    09:00 +26°C° 0 mm 6 mps 754 mmHg 60%
    10:00 +28°C° 0 mm 7 mps 755 mmHg 51%
    11:00 +28°C° 0 mm 7 mps 754 mmHg 49%
    12:00 +29°C° 0 mm 8 mps 753 mmHg 46%
    13:00 +29°C° 0 mm 8 mps 752 mmHg 43%
    14:00 +28°C° 0 mm 8 mps 752 mmHg 46%
    15:00 +28°C° 0 mm 8 mps 751 mmHg 49%
    16:00 +27°C° 0 mm 8 mps 751 mmHg 52%
    17:00 +27°C° 0.1 mm 8 mps 751 mmHg 54%
    18:00 +26°C° 0.1 mm 7 mps 751 mmHg 57%
    19:00 +24°C° 0.1 mm 7 mps 752 mmHg 59%
    20:00 +24°C° 0.3 mm 7 mps 752 mmHg 60%
    21:00 +24°C° 0.3 mm 6 mps 752 mmHg 61%
    22:00 +24°C° 0.3 mm 6 mps 753 mmHg 61%
    23:00 +24°C° 1.5 mm 6 mps 752 mmHg 63%

    26 February, Tuesday

    Time Temperature Precipitation Wind Pressure Humidity
    00:00 +23°C° 1.5 mm 6 mps 752 mmHg 65%
    01:00 +23°C° 1.5 mm 6 mps 752 mmHg 66%
    02:00 +23°C° 1.2 mm 5 mps 751 mmHg 63%
    03:00 +22°C° 1.2 mm 4 mps 751 mmHg 61%
    04:00 +22°C° 1.2 mm 3 mps 751 mmHg 58%
    05:00 +22°C° 0 mm 4 mps 751 mmHg 49%
    06:00 +21°C° 0 mm 5 mps 752 mmHg 41%
    07:00 +21°C° 0 mm 5 mps 753 mmHg 33%
    08:00 +22°C° 0 mm 5 mps 753 mmHg 30%
    09:00 +25°C° 0 mm 5 mps 753 mmHg 28%
    10:00 +26°C° 0 mm 5 mps 754 mmHg 26%
    11:00 +27°C° 0 mm 5 mps 753 mmHg 25%
    12:00 +27°C° 0 mm 4 mps 752 mmHg 23%
    13:00 +28°C° 0 mm 3 mps 752 mmHg 22%
    14:00 +28°C° 0 mm 4 mps 752 mmHg 21%
    15:00 +28°C° 0 mm 4 mps 751 mmHg 20%
    16:00 +28°C° 0 mm 5 mps 751 mmHg 19%
    17:00 +27°C° 0 mm 5 mps 751 mmHg 23%
    18:00 +26°C° 0 mm 5 mps 752 mmHg 28%
    19:00 +25°C° 0 mm 5 mps 752 mmHg 32%
    20:00 +25°C° 0 mm 5 mps 752 mmHg 36%
    21:00 +23°C° 0 mm 6 mps 753 mmHg 40%
    22:00 +23°C° 0 mm 6 mps 753 mmHg 44%
    23:00 +23°C° 0 mm 6 mps 753 mmHg 37%

    27 February, Wednesday

    Time Temperature Precipitation Wind Pressure Humidity
    00:00 +22°C° 0 mm 6 mps 753 mmHg 30%
    01:00 +22°C° 0 mm 6 mps 752 mmHg 23%
    02:00 +22°C° 0 mm 5 mps 752 mmHg 22%
    03:00 +21°C° 0 mm 5 mps 752 mmHg 20%
    04:00 +21°C° 0 mm 4 mps 752 mmHg 19%
    05:00 +21°C° 0 mm 4 mps 753 mmHg 19%
    06:00 +20°C° 0 mm 3 mps 753 mmHg 19%
    07:00 +20°C° 0 mm 2 mps 754 mmHg 19%
    08:00 +23°C° 0 mm 2 mps 755 mmHg 16%
    09:00 +24°C° 0 mm 2 mps 755 mmHg 13%
    10:00 +25°C° 0 mm 2 mps 756 mmHg 10%
    11:00 +26°C° 0 mm 2 mps 755 mmHg 10%
    12:00 +27°C° 0 mm 3 mps 755 mmHg 9%
    13:00 +28°C° 0 mm 3 mps 754 mmHg 9%
    14:00 +28°C° 0 mm 4 mps 754 mmHg 10%
    15:00 +27°C° 0 mm 4 mps 753 mmHg 12%
    16:00 +27°C° 0 mm 5 mps 753 mmHg 13%
    17:00 +26°C° 0 mm 5 mps 754 mmHg 17%
    18:00 +25°C° 0 mm 5 mps 754 mmHg 22%
    19:00 +23°C° 0 mm 4 mps 754 mmHg 26%
    20:00 +23°C° 0 mm 4 mps 755 mmHg 31%
    21:00 +23°C° 0 mm 4 mps 755 mmHg 36%
    22:00 +23°C° 0 mm 4 mps 755 mmHg 40%
    23:00 +22°C° 0 mm 4 mps 755 mmHg 48%

    28 February, Thursday

    Time Temperature Precipitation Wind Pressure Humidity
    00:00 +22°C° 0 mm 4 mps 754 mmHg 55%
    01:00 +22°C° 0 mm 4 mps 754 mmHg 63%
    02:00 +22°C° 0 mm 4 mps 753 mmHg 63%
    03:00 +22°C° 0 mm 4 mps 753 mmHg 62%
    04:00 +22°C° 0 mm 4 mps 753 mmHg 62%
    05:00 +22°C° 0 mm 4 mps 753 mmHg 62%
    06:00 +22°C° 0 mm 4 mps 754 mmHg 61%
    07:00 +22°C° 0 mm 4 mps 754 mmHg 60%
    08:00 +23°C° 0 mm 5 mps 754 mmHg 55%
    09:00 +26°C° 0 mm 6 mps 755 mmHg 50%
    10:00 +27°C° 0 mm 7 mps 755 mmHg 44%
    11:00 +27°C° 0 mm 7 mps 754 mmHg 44%
    12:00 +28°C° 0 mm 8 mps 753 mmHg 44%
    13:00 +28°C° 0 mm 8 mps 753 mmHg 44%
    14:00 +28°C° 0 mm 8 mps 753 mmHg 46%
    15:00 +27°C° 0 mm 8 mps 752 mmHg 48%
    16:00 +27°C° 0 mm 7 mps 752 mmHg 50%
    17:00 +26°C° 0 mm 7 mps 753 mmHg 54%
    18:00 +26°C° 0 mm 6 mps 753 mmHg 58%
    19:00 +24°C° 0 mm 6 mps 754 mmHg 62%
    20:00 +24°C° 0 mm 6 mps 754 mmHg 65%
    21:00 +24°C° 0 mm 6 mps 754 mmHg 68%
    22:00 +23°C° 0 mm 6 mps 754 mmHg 71%
    23:00 +23°C° 0 mm 5 mps 754 mmHg 73%
    Show more